[[{"header":{"parameterUnit":"m.s-1","parameterCategory":1,"la1":30.2991,"la2":30.254,"lo1":-89.0895,"lo2":-89.0444,"dy":0.0017,"dx":0.0017,"nx":28,"ny":28,"refTime":"2024-07-21T21:00:00:Z","depth":0,"parameterNumber":2,"parameterNumberName":"U-component_of_WINDS"},"data":[0,0,0,0,0,0,0,0,0,0,0,0,0,0,0,0,0,0,0,0,0,0,0,0,0,0,0,0,0,0,0,0,0,0,0,0,0,0,0,0,0,0,0,0,0,0,0,0,0,0,0,0,0,0,0,0,0,0,0.6914,0.6914,0,0.6897,0.6897,0.6897,0.6897,0.6897,0.6897,0.6897,0.6877,0.6876,0.6875,0,0,0,0,0,0,0,0,0,0,0,0,0,0.6945,0.6945,0.6914,0.6914,0.6914,0.6897,0.6897,0.6897,0.6897,0.6897,0.6897,0.6898,0.6877,0.6876,0.6875,0,0,0,0,0,0,0,0,0,0,0,0,0,0.693,0.6944,0.6914,0.6912,0.6912,0.6897,0.6897,0.6897,0.6897,0.6897,0.6897,0.6898,0.6878,0.6876,0.6875,0.6861,0,0,0.6872,0.6871,0,0,0,0,0,0,0,0,0.6931,0.6929,0.6913,0.6912,0.6912,0.69,0.69,0.6885,0.6897,0.6902,0.6897,0.6898,0.6884,0.6882,0.6878,0.686,0.6859,0.6872,0.6871,0.687,0.687,0,0,0,0,0,0,0,0.6932,0.693,0.6907,0.6912,0.6912,0.6911,0.6909,0.6897,0.6891,0.6902,0.6902,0.69,0.6884,0.6879,0.6878,0.6859,0.6872,0.6871,0.687,0.687,0.6828,0.6828,0,0,0,0,0,0,0.6934,0.6931,0.6908,0.6907,0.6923,0.691,0.6908,0.6903,0.6891,0.689,0.69,0.69,0.6881,0.6879,0.6877,0.6859,0.6871,0.6869,0.6869,0.6829,0.6828,0.6828,0,0,0,0,0,0,0.6935,0.6932,0.6909,0.6919,0.6916,0.6909,0.6903,0.6903,0.6898,0.689,0.6888,0.6896,0.6881,0.6879,0.6865,0.6859,0.6869,0.6868,0.6829,0.6829,0.6828,0.6824,0,0,0,0,0,0,0.6936,0.6932,0.6927,0.6919,0.6915,0.6898,0.6903,0.6902,0.6896,0.6897,0.6886,0.6885,0.6881,0.6867,0.6864,0.6857,0.6867,0.683,0.6829,0.6828,0.6825,0.6824,0.6823,0,0,0,0,0,0.6937,0.6926,0.6927,0.6924,0.6909,0.6898,0.6895,0.6892,0.6896,0.689,0.6885,0.6885,0.686,0.6866,0.6862,0.6855,0.683,0.6829,0.6828,0.6826,0.6824,0.6823,0,0,0,0,0,0,0.6933,0.6925,0.6926,0.6913,0.6906,0.6898,0.6891,0.6891,0.6882,0.6883,0.6879,0.6876,0.6863,0.6858,0.6864,0.6841,0.6846,0.6844,0.6845,0.6843,0.6842,0.6843,0.6866,0,0,0,0,0,0.6931,0.6923,0.6916,0.6905,0.6902,0.6897,0.6892,0.689,0.6883,0.6879,0.6873,0.6865,0.6856,0.6849,0.684,0.6825,0.6822,0.6818,0.6817,0.6816,0.6814,0.6806,0.6804,0.6825,0.6825,0.6825,0,0,0.6926,0.6921,0.6916,0.6904,0.6899,0.689,0.6894,0.6885,0.6878,0.6878,0.6865,0.686,0.6851,0.6837,0.683,0.6832,0.6808,0.6815,0.6814,0.6813,0.6805,0.6803,0.6801,0.6824,0.6824,0.6825,0,0,0.6912,0.6908,0.6898,0.6893,0.6885,0.6882,0.688,0.6872,0.6869,0.6856,0.6856,0.6847,0.6831,0.6824,0.6819,0.6804,0.6803,0.6801,0.6794,0.6785,0.6784,0.6782,0.6776,0.6774,0.6799,0.6799,0.6799,0,0.6906,0.6894,0.6892,0.6883,0.6878,0.6879,0.6868,0.6863,0.6852,0.6848,0.6851,0.6831,0.6825,0.6809,0.6805,0.6801,0.6798,0.6801,0.6784,0.6783,0.6781,0.6775,0.6773,0.6799,0.6799,0.6799,0.6799,0,0.6887,0.6878,0.6871,0.6862,0.6856,0.6846,0.6843,0.6837,0.6836,0.6833,0.682,0.6813,0.6802,0.6798,0.6797,0.6782,0.6783,0.6785,0.679,0.6779,0.6773,0.6771,0.6799,0.6799,0.6799,0.6799,0,0,0.6869,0.686,0.6857,0.6853,0.6845,0.6838,0.6828,0.6819,0.6813,0.6806,0.6797,0.6784,0.6786,0.678,0.6778,0.6771,0.6758,0.6774,0.6773,0.677,0.6741,0.6739,0.6736,0.6759,0.6758,0.6758,0.6741,0,0.6853,0.6837,0.6836,0.682,0.6812,0.6813,0.6805,0.6798,0.6795,0.6787,0.6783,0.6773,0.6777,0.6773,0.6767,0.6761,0.6752,0.6763,0.6749,0.6749,0.675,0.6733,0.6731,0.6715,0.6739,0.6739,0.6739,0,0.6833,0.6826,0.681,0.6804,0.68,0.6793,0.6784,0.6777,0.677,0.6768,0.6761,0.6761,0.675,0.6756,0.674,0.6748,0.6742,0.6739,0.6738,0.6736,0.6742,0.6729,0.671,0.6707,0.6735,0.6735,0.6736,0,0.682,0.6807,0.6796,0.6793,0.6785,0.678,0.6776,0.677,0.6764,0.6756,0.6753,0.6744,0.6738,0.6731,0.6727,0.6732,0.6712,0.6718,0.6709,0.6709,0.6703,0.6704,0.6682,0.6702,0.6702,0.6702,0.6702,0,0.6802,0.6792,0.679,0.6783,0.6772,0.6771,0.6759,0.6756,0.6751,0.6742,0.6743,0.6735,0.6732,0.6723,0.672,0.6707,0.6705,0.6703,0.6702,0.6702,0.6702,0.6697,0.6698,0.6701,0.6702,0.6702,0.6702,0,0.6785,0.6784,0.6772,0.6766,0.6765,0.6756,0.6751,0.6744,0.6742,0.6731,0.6729,0.6724,0.6714,0.6711,0.6698,0.6696,0.6681,0.6682,0.6683,0.6683,0.6674,0.6675,0.6648,0.6644,0.6667,0.6667,0.6667,0,0.6773,0.6766,0.676,0.6755,0.6752,0.6744,0.6738,0.6738,0.6732,0.6724,0.6717,0.6708,0.67,0.6683,0.6678,0.6669,0.6668,0.666,0.6667,0.6667,0.6667,0.6667,0.6666,0.6658,0.6658,0.6658,0.6657,0,0.6752,0.6752,0.6745,0.6738,0.6732,0.6726,0.672,0.6716,0.6714,0.6707,0.6698,0.6692,0.668,0.6669,0.666,0.6655,0.6655,0.6656,0.6653,0.6652,0.6653,0.6651,0.6679,0.6656,0.6656,0.6656,0.6656,0.6656,0.6736,0.673,0.6725,0.6717,0.6713,0.6708,0.6701,0.6698,0.669,0.6681,0.6681,0.667,0.6663,0.6651,0.6646,0.6637,0.6639,0.6635,0.6634,0.6633,0.6632,0.6656,0.6635,0.6635,0.6635,0.6635,0.6635,0,0.6714,0.6712,0.6704,0.6697,0.6691,0.6693,0.6687,0.6681,0.6672,0.6667,0.6659,0.6648,0.6639,0.6634,0.6624,0.6618,0.6618,0.6615,0.6615,0.6614,0.6631,0.6634,0.6615,0.6615,0.6615,0.6615,0.6615,0.6615,0.6702,0.6691,0.669,0.6677,0.6674,0.6664,0.666,0.6655,0.6651,0.6639,0.6631,0.6629,0.6623,0.6613,0.6604,0.6603,0.6599,0.6596,0.6595,0.661,0.6612,0.6614,0.6617,0.6595,0.6595,0.6578,0.6578,0.6578]},{"header":{"parameterUnit":"m.s-1","parameterCategory":1,"la1":30.2991,"la2":30.254,"lo1":-89.0895,"lo2":-89.0444,"dy":0.0017,"dx":0.0017,"nx":28,"ny":28,"refTime":"2024-07-21T21:00:00:Z","depth":0,"parameterNumber":3,"parameterNumberName":"V-component_of_WINDS"},"data":[0,0,0,0,0,0,0,0,0,0,0,0,0,0,0,0,0,0,0,0,0,0,0,0,0,0,0,0,0,0,0,0,0,0,0,0,0,0,0,0,0,0,0,0,0,0,0,0,0,0,0,0,0,0,0,0,0,0,2.5281,2.5282,0,2.5342,2.5342,2.5343,2.5345,2.5344,2.5343,2.5343,2.5403,2.5405,2.5407,0,0,0,0,0,0,0,0,0,0,0,0,0,2.5166,2.5169,2.5281,2.5282,2.5283,2.5341,2.5342,2.5343,2.5345,2.5344,2.5343,2.5342,2.5402,2.5405,2.5407,0,0,0,0,0,0,0,0,0,0,0,0,0,2.522,2.5169,2.5281,2.5291,2.5292,2.5341,2.5342,2.5343,2.5345,2.5344,2.5343,2.5342,2.5401,2.5404,2.5408,2.545,0,0,2.5418,2.542,0,0,0,0,0,0,0,0,2.5217,2.5225,2.5289,2.529,2.5292,2.5335,2.5324,2.5379,2.5345,2.5325,2.5343,2.5341,2.5381,2.5386,2.5399,2.5453,2.5456,2.5418,2.542,2.5422,2.5423,0,0,0,0,0,0,0,2.5214,2.5222,2.5305,2.529,2.5292,2.5292,2.5298,2.5334,2.5358,2.5327,2.5327,2.5334,2.5381,2.5396,2.5401,2.5457,2.5418,2.5421,2.5423,2.5425,2.5549,2.555,0,0,0,0,0,0,2.5208,2.5219,2.5303,2.5307,2.5251,2.5295,2.5302,2.5322,2.5358,2.5362,2.5335,2.5334,2.5391,2.5397,2.5403,2.5456,2.5422,2.5425,2.5427,2.5548,2.5549,2.555,0,0,0,0,0,0,2.5206,2.5216,2.5301,2.5263,2.5274,2.5298,2.532,2.5324,2.5338,2.5364,2.5368,2.5346,2.539,2.5398,2.5439,2.5458,2.5427,2.543,2.5546,2.5548,2.555,2.5562,0,0,0,0,0,0,2.5202,2.5215,2.5232,2.5263,2.5276,2.5336,2.5322,2.5326,2.5345,2.5344,2.5375,2.5379,2.539,2.5434,2.5442,2.5462,2.5432,2.5544,2.5547,2.5549,2.556,2.5564,2.5567,0,0,0,0,0,2.5198,2.5232,2.5233,2.5243,2.5298,2.5337,2.5344,2.5356,2.5346,2.5363,2.538,2.5378,2.5454,2.5438,2.5447,2.5469,2.5543,2.5546,2.5549,2.5558,2.5563,2.5567,0,0,0,0,0,0,2.5202,2.5237,2.5237,2.5283,2.5307,2.5338,2.536,2.5361,2.5388,2.5387,2.5399,2.5407,2.5447,2.5462,2.5443,2.5512,2.5497,2.5502,2.5501,2.5506,2.551,2.5506,2.5435,0,0,0,0,0,2.5208,2.5238,2.5266,2.5303,2.5316,2.5335,2.5353,2.536,2.5386,2.5396,2.5415,2.544,2.5469,2.5488,2.5516,2.5561,2.5568,2.5581,2.5584,2.5587,2.5592,2.5617,2.5623,2.556,2.556,2.556,0,0,2.522,2.5243,2.5261,2.5305,2.5325,2.5355,2.5344,2.5376,2.5399,2.5401,2.5441,2.5456,2.5484,2.5527,2.5547,2.554,2.561,2.5591,2.5593,2.5596,2.562,2.5626,2.5631,2.5562,2.5561,2.5561,0,0,2.526,2.528,2.5313,2.5333,2.5364,2.5376,2.5384,2.5415,2.5425,2.5465,2.5467,2.5494,2.5544,2.5564,2.5581,2.5627,2.5627,2.5636,2.5656,2.568,2.5685,2.5689,2.5706,2.5712,2.564,2.564,2.564,0,2.5272,2.5318,2.533,2.5363,2.5382,2.5385,2.5419,2.5438,2.5475,2.5488,2.548,2.5543,2.5562,2.561,2.5622,2.5635,2.5644,2.5633,2.5683,2.5688,2.5692,2.5709,2.5715,2.5641,2.564,2.564,2.564,0,2.5332,2.5364,2.5387,2.5424,2.5445,2.5478,2.5495,2.5515,2.552,2.5534,2.5575,2.5597,2.5631,2.5642,2.5647,2.5691,2.5686,2.5681,2.5667,2.5699,2.5715,2.5721,2.5642,2.5642,2.5641,2.5641,0,0,2.5375,2.5419,2.5427,2.5444,2.5477,2.5502,2.5535,2.5568,2.5585,2.5611,2.5639,2.5681,2.5676,2.5695,2.5702,2.5723,2.5759,2.5715,2.5716,2.5723,2.5809,2.5814,2.5821,2.5759,2.576,2.5761,2.5807,0,2.5419,2.5478,2.549,2.5542,2.5571,2.5574,2.5603,2.5626,2.564,2.5666,2.5681,2.5711,2.5702,2.5713,2.5734,2.575,2.5777,2.5747,2.5785,2.5786,2.5779,2.5829,2.5835,2.5877,2.5813,2.5815,2.5815,0,2.5477,2.5505,2.556,2.559,2.5603,2.5628,2.566,2.5685,2.5711,2.5719,2.5741,2.5745,2.5779,2.5763,2.5809,2.5789,2.5805,2.5815,2.5817,2.5822,2.5804,2.5836,2.5891,2.5898,2.5825,2.5824,2.5823,0,2.5505,2.5556,2.5595,2.561,2.5645,2.5663,2.5678,2.5704,2.5723,2.575,2.5762,2.5792,2.5809,2.5832,2.5845,2.5831,2.5891,2.5875,2.5898,2.5898,2.5912,2.5911,2.597,2.592,2.592,2.592,2.592,0,2.5553,2.5586,2.5608,2.5633,2.567,2.5683,2.5719,2.5734,2.5757,2.5784,2.5788,2.5813,2.5827,2.5854,2.5864,2.5902,2.5909,2.5916,2.5919,2.5917,2.5916,2.5928,2.5926,2.5922,2.5921,2.5921,2.5921,0,2.559,2.5606,2.565,2.5679,2.5688,2.5714,2.574,2.5763,2.5776,2.581,2.5819,2.5839,2.5871,2.5886,2.5925,2.5931,2.5975,2.5974,2.5966,2.5967,2.599,2.5988,2.606,2.6071,2.6013,2.6013,2.6014,0,2.562,2.5646,2.5679,2.5698,2.5714,2.5744,2.5763,2.5776,2.5797,2.5828,2.5848,2.588,2.5907,2.5958,2.5976,2.6006,2.6007,2.603,2.6012,2.6009,2.6008,2.6007,2.601,2.6034,2.6035,2.6035,2.6035,0,2.5672,2.5678,2.5707,2.5739,2.5762,2.5788,2.5812,2.5827,2.5844,2.5866,2.59,2.592,2.5961,2.5993,2.6024,2.6039,2.604,2.6041,2.6048,2.6047,2.6041,2.6045,2.5976,2.604,2.6039,2.6039,2.6039,2.6038,2.5707,2.573,2.5757,2.5789,2.5809,2.5832,2.5856,2.5872,2.59,2.5935,2.594,2.5976,2.6001,2.6043,2.6059,2.6087,2.6081,2.6091,2.6094,2.6097,2.6099,2.6036,2.6092,2.6092,2.6092,2.6092,2.6092,0,2.576,2.5777,2.5806,2.5841,2.5866,2.5865,2.5892,2.5913,2.5944,2.5968,2.5994,2.6032,2.6063,2.6084,2.6115,2.6133,2.6135,2.6141,2.614,2.6144,2.6101,2.6093,2.614,2.614,2.6139,2.6139,2.6139,2.6139,2.579,2.583,2.584,2.5889,2.5906,2.5942,2.5957,2.5979,2.5998,2.604,2.6066,2.6079,2.6102,2.6135,2.6163,2.6168,2.618,2.6187,2.6192,2.6152,2.6147,2.6142,2.6134,2.6189,2.6189,2.6232,2.6232,2.6233]}]]